This is the latest recevied weather packets stored in our database for station/object N1HRK. If no packets are shown the sender has not sent any weather packets the latest 10 day(s).
| Time | Temp. | Humidity | Pressure | Rain* | Wind** | Luminosity | Snow |
|---|---|---|---|---|---|---|---|
| 1777792924 | 9.44° C | 56% | 1008 hPa | 0 mm | - | - | - |
| 1777792324 | 8.89° C | 55% | 1007.9 hPa | 0 mm | - | - | - |
| 1777791724 | 9.44° C | 55% | 1007.9 hPa | 0 mm | - | - | - |
| 1777791123 | 9.44° C | 54% | 1008 hPa | 0 mm | - | - | - |
| 1777790523 | 9.44° C | 54% | 1007.9 hPa | 0 mm | - | - | - |
| 1777789924 | 9.44° C | 53% | 1008.3 hPa | 0 mm | - | - | - |
| 1777789324 | 9.44° C | 53% | 1008.4 hPa | 0 mm | - | - | - |
| 1777788724 | 9.44° C | 54% | 1008.6 hPa | 0 mm | - | - | - |
| 1777788124 | 9.44° C | 54% | 1008.7 hPa | 0 mm | - | - | - |
| 1777787523 | 9.44° C | 54% | 1008.9 hPa | 0 mm | - | - | - |
| 1777786924 | 9.44° C | 52% | 1008.7 hPa | 0 mm | - | - | - |
| 1777786323 | 9.44° C | 51% | 1008.9 hPa | 0 mm | - | - | - |
| 1777785724 | 10° C | 53% | 1009.2 hPa | 0 mm | - | - | - |
| 1777785123 | 10° C | 54% | 1009.2 hPa | 0 mm | - | - | - |
| 1777784522 | 10° C | 54% | 1009.4 hPa | 0 mm | - | - | - |
| 1777783924 | 10° C | 58% | 1009.4 hPa | 0 mm | - | - | - |
| 1777783323 | 10° C | 58% | 1009.4 hPa | 0 mm | - | - | - |
| 1777782723 | 10° C | 64% | 1009.6 hPa | 0 mm | - | - | - |
| 1777782123 | 9.44° C | 76% | 1010 hPa | 0 mm | - | - | - |
| 1777781524 | 9.44° C | 89% | 1009.9 hPa | 0 mm | - | - | - |
| 1777780923 | 9.44° C | 91% | 1009.8 hPa | 0 mm | - | - | - |
| 1777780323 | 9.44° C | 92% | 1010 hPa | 0 mm | - | - | - |
| 1777779723 | 10° C | 92% | 1010 hPa | 0 mm | - | - | - |
| 1777779123 | 10° C | 92% | 1010.1 hPa | 0 mm | - | - | - |
| 1777778553 | 10° C | 91% | 1010 hPa | 0 mm | - | - | - |
* Rain latest hour (hover to see other rain measurements)
** Current wind speed in m/s (hover to see current wind gust speed)